SCP
1 1 1 0 0 0 0 0 0 0 0 0 0 0 0 0 0 0 0 0 0 0 0 0 0 0 0 0 0 0 0 0 0 0 0 0 0 0 0 0 0 0 0 0
1 1 1 0 0 0 0 0 0 0 0 0 0 0 0 0 0 0 0 0 0 0 0 0 0 0 0 0 0 0 0 0 0 0 0 0 0 0 0 0 0 0 0 0
0 0 0 0 0 0 0 0 0 0 0 0 0 0 0 0 0 0 0 0 0 0 0 0 0 0 0 0 0 0 0 0 0 0 0 0 0 0 0 0 0 0 0 0
0 0 0 0 0 0 0 0 0 0 0 0 0 0 0 0 0 0 0 0 0 0 0 0 0 0 0 0 0 0 0 0 0 0 0 0 0 0 0 0 0 0 0 0
0 0 0 0 0 0 0 0 0 0 0 0 0 0 0 0 0 0 0 0 0 0 0 0 0 0 0 0 0 0 0 0 0 0 0 0 0 0 0 0 0 0 0 0
0 0 0 0 0 0 0 0 0 0 0 0 0 0 0 0 0 0 0 0 0 0 0 0 0 0 0 0 0 0 0 0 0 0 0 0 0 0 0 0 0 0 0 0
0 0 0 0 0 0 0 0 0 0 0 0 0 0 0 0 0 0 0 0 0 0 0 0 0 0 0 0 0 0 0 0 0 0 0 0 0 0 0 0 0 0 0 0
0 0 0 0 0 0 0 0 0 0 0 0 0 0 0 0 0 0 0 0 0 0 0 0 0 0 0 0 0 0 0 0 0 0 0 0 0 0 0 0 0 0 0 0
0 0 0 0 0 0 0 0 0 0 0 0 0 0 0 0 0 0 0 0 0 0 0 0 0 0 0 0 0 0 0 0 0 0 0 0 0 0 0 0 0 0 0 0
0 0 0 0 0 0 0 0 0 0 0 0 0 0 0 0 0 0 0 0 0 0 0 0 0 0 0 0 0 0 0 0 0 0 0 0 0 0 0 0 0 0 0 0
0 0 0 0 0 0 0 0 0 0 0 0 0 0 0 0 0 0 0 0 0 0 0 0 0 0 0 0 0 0 0 0 0 0 0 0 0 0 0 0 0 0 1 1
0 0 0 0 0 0 0 0 0 0 0 0 0 0 0 0 0 0 0 0 0 0 0 0 0 0 0 0 0 0 0 0 0 0 0 0 0 0 0 0 0 0 1 1
0 0 0 0 0 0 0 0 0 0 0 0 0 0 0 0 0 0 0 0 0 0 0 0 0 0 0 0 0 0 0 0 0 0 0 0 0 0 0 0 0 0 0 1
1 1 0 0 0 0 0 0 0 0 0 0 0 0 0 0 0 0 0 0 0 0 0 0 0 0 0 0 0 0 0 0 0 0 0 0 0 0 0 0 0 0 0 0
1 0 0 0 0 0 0 0 0 0 0 0 0 0 0 0 0 0 0 0 0 0 0 0 0 0 0 0 0 0 0 0 0 0 0 0 0 0 0 0 0 0 0 0
0 0 0 0 0 0 0 0 0 0 0 0 0 0 0 0 0 0 0 0 0 0 0 0 0 0 0 0 0 0 0 0 0 0 0 0 0 0 0 0 0 0 0 0
0 0 0 0 0 0 0 0 0 0 0 0 0 0 0 0 0 0 0 0 0 0 0 0 0 0 0 0 0 0 0 0 0 0 0 0 0 0 0 0 0 0 0 0
0 0 0 0 0 0 0 0 0 0 0 0 0 0 0 0 0 0 0 0 0 0 0 0 0 0 0 0 0 0 0 0 0 0 0 0 0 0 0 0 0 0 0 0
0 0 0 0 0 0 0 0 0 0 0 0 0 0 0 0 0 0 0 0 0 0 0 0 0 0 0 0 0 0 0 0 0 0 0 0 0 0 0 0 0 0 0 0
0 0 0 0 0 0 0 0 0 0 0 0 0 0 0 0 0 0 0 0 0 0 0 0 0 0 0 0 0 0 0 0 0 0 0 0 0 0 0 0 0 0 0 0
0 0 0 0 0 0 0 0 0 0 0 0 0 0 0 0 0 0 0 0 0 0 0 0 0 0 0 0 0 0 0 0 0 0 0 0 0 0 0 0 0 0 0 0
0 0 0 0 0 0 0 0 0 0 0 0 0 0 0 0 0 0 0 0 0 0 0 0 0 0 0 0 0 0 0 0 0 0 0 0 0 0 0 0 0 0 0 0
0 0 0 0 0 0 0 0 0 0 0 0 0 0 0 0 0 0 0 0 0 0 0 0 0 0 0 0 0 0 0 0 0 0 0 0 0 0 0 0 0 0 0 0
0 0 0 0 0 0 0 0 0 0 0 0 0 0 0 0 0 0 0 0 0 0 0 0 0 0 0 0 0 0 0 0 0 0 0 0 0 0 0 0 0 0 0 0
0 0 0 0 0 0 0 0 0 0 0 0 0 0 0 0 0 0 0 0 0 0 0 0 0 0 0 0 0 0 0 0 0 0 0 0 0 0 0 0 0 0 0 0
0 0 0 0 0 0 0 0 0 0 0 0 0 0 0 0 0 0 0 0 0 0 0 0 0 0 0 0 0 0 0 0 0 0 0 0 0 0 0 0 0 0 0 0
Wind_Speed
9 9 14 16 18 13 8 9 10 8 4 6 10 13 12 10 9 9 8 8 8 8 7 6 6 6 5 6 6 7 8 9 8 7 7 8 8 7 7 7 9 10 10 11
9 16 15 12 13 14 13 13 11 6 3 4 8 13 12 12 13 11 10 10 9 8 7 6 5 5 5 5 6 6 7 7 8 8 7 6 6 6 8 7 9 11 11 11
18 9 13 14 14 15 16 15 12 8 3 4 6 11 13 13 14 13 11 10 9 8 7 6 5 5 5 5 6 6 7 8 8 8 5 4 5 5 7 8 9 11 12 12
17 13 11 14 16 15 16 12 10 8 5 5 6 8 7 9 11 13 12 11 10 9 7 6 4 3 4 5 5 6 6 6 6 7 7 8 8 9 10 8 7 9 12 13
12 13 15 17 16 14 7 4 8 8 7 7 7 9 8 7 9 10 10 10 9 7 6 5 4 4 4 4 4 4 5 5 5 6 8 9 9 9 7 6 8 9 10 13
10 8 12 13 11 10 4 2 2 4 5 12 13 12 9 8 11 9 9 8 7 6 5 4 3 2 2 2 2 3 4 5 5 6 7 9 11 10 9 9 8 8 7 9
11 10 8 6 9 10 9 7 5 6 8 10 10 12 11 6 7 7 6 5 5 5 4 3 2 2 1 1 2 2 3 4 5 5 7 8 9 10 11 10 9 8 7 8
14 13 14 10 13 12 16 14 10 8 7 5 8 13 9 5 5 4 4 4 3 3 3 2 1 1 0 0 1 2 3 4 4 5 6 7 8 7 7 9 8 8 8 9
13 11 11 13 9 12 13 15 9 4 2 3 7 7 5 4 5 6 5 5 4 3 2 2 1 1 0 1 2 2 3 4 4 5 5 6 7 7 8 8 8 8 8 7
6 7 8 11 7 11 8 8 6 8 7 8 8 10 8 8 9 8 8 6 5 4 2 2 1 1 1 1 2 2 3 4 4 4 5 5 6 7 8 8 9 9 9 8
8 6 7 9 15 16 12 12 9 7 6 6 6 6 5 8 9 8 6 6 5 4 3 2 1 1 1 2 2 3 3 4 4 4 5 5 6 6 7 7 8 8 9 9
10 5 7 10 7 8 13 14 13 9 8 6 5 7 0 3 5 5 5 5 5 4 3 2 1 2 2 2 2 3 3 4 4 4 4 5 6 6 6 7 8 8 8 9
11 7 7 6 5 7 11 14 15 11 6 7 8 8 1 2 3 4 5 5 4 4 2 2 1 2 2 2 3 3 4 4 5 4 4 5 6 6 7 8 8 8 8 8
11 6 9 12 8 10 11 13 13 13 10 11 14 12 8 4 2 2 3 4 3 3 3 3 2 2 2 2 3 4 4 4 5 5 5 6 6 7 7 7 8 8 8 8
8 7 7 7 5 8 9 13 17 18 16 13 13 15 14 9 6 5 4 3 3 2 2 2 2 2 3 3 4 4 4 5 5 5 6 7 7 7 7 8 8 8 8 8
7 6 5 6 6 6 7 12 15 19 18 18 16 18 13 8 6 5 4 4 4 4 2 2 2 3 4 4 4 5 5 5 5 6 7 7 8 8 8 8 8 8 9 8
7 6 6 7 5 3 11 16 17 16 17 17 20 21 10 9 9 7 5 5 4 3 3 2 2 2 3 3 4 5 5 6 6 7 8 8 8 8 8 8 8 9 9 9
7 6 4 3 5 14 12 9 15 18 18 16 16 14 12 9 7 5 5 5 4 3 2 2 1 2 3 3 4 5 6 6 7 8 9 8 8 9 9 8 9 9 8 8
8 8 5 5 8 9 7 9 12 14 17 15 16 15 11 7 5 5 2 3 3 2 1 1 1 2 3 3 4 5 6 7 7 8 9 9 8 9 9 9 10 9 8 9
7 7 6 6 7 11 10 7 8 7 13 11 11 12 9 6 7 6 3 3 2 1 0 1 2 2 3 4 4 6 7 8 8 9 9 9 9 9 10 11 10 8 7 9
9 8 11 9 8 10 7 6 8 10 12 5 7 8 7 8 6 3 2 2 1 1 0 1 2 3 4 4 5 7 8 8 8 9 10 10 9 9 10 10 9 8 7 8
11 9 10 8 9 12 6 8 10 8 3 2 3 3 3 2 1 1 1 1 1 1 2 2 3 5 5 4 5 8 9 9 8 9 10 11 10 9 8 9 9 8 7 8
9 9 7 10 11 5 8 7 5 3 3 2 2 1 2 2 1 1 1 1 2 2 3 3 4 6 6 5 5 8 10 8 9 10 11 11 11 9 8 8 9 8 6 6
5 4 4 5 7 5 4 2 2 2 3 3 2 2 2 2 2 2 3 3 3 3 3 3 5 7 8 6 6 7 9 9 9 11 11 10 10 10 8 7 7 7 6 6
6 5 5 7 6 3 4 3 3 2 2 2 2 1 2 2 3 3 4 4 4 4 4 4 5 7 9 8 8 7 8 8 10 11 11 10 9 9 8 7 6 7 7 7
7 8 9 9 7 6 5 4 4 4 3 3 2 2 1 2 3 4 4 4 4 5 5 5 6 7 8 8 9 8 7 7 9 10 10 8 7 7 7 7 7 8 8 9
Wind_Direction
186 203 207 205 212 229 237 234 237 236 219 219 236 246 249 250 249 246 242 242 246 246 240 225 210 198 192 194 199 203 202 200 193 195 200 206 213 214 217 218 216 213 211 208
190 219 216 213 215 228 242 249 249 251 224 250 262 263 257 250 246 241 239 240 239 242 244 235 211 192 187 194 202 207 208 204 201 204 203 205 206 214 220 222 220 217 215 211
208 209 207 215 218 220 228 234 239 244 244 243 277 271 248 244 241 238 235 236 239 236 236 237 217 198 187 196 206 212 213 212 210 206 200 204 212 221 219 219 220 218 216 214
221 221 209 213 219 217 231 227 238 247 245 241 216 271 247 242 235 231 230 228 231 233 230 226 219 202 194 203 209 214 217 218 216 204 202 206 213 223 226 222 220 215 213 216
209 202 206 216 216 213 224 208 224 237 244 257 239 262 257 232 235 226 222 221 219 216 212 210 210 209 204 202 210 220 225 227 221 213 209 212 223 230 234 229 225 220 215 215
219 205 204 213 213 209 191 167 221 232 233 244 224 233 262 215 220 219 216 211 204 192 190 201 209 212 213 205 214 223 227 233 228 225 224 222 227 232 236 235 233 227 221 217
214 219 209 191 189 193 184 170 189 204 216 236 197 217 246 215 202 198 189 186 182 174 183 193 203 210 218 230 223 228 237 245 239 233 234 236 237 236 238 240 239 235 229 225
196 206 198 192 194 189 194 193 195 202 215 231 193 220 240 198 178 165 162 165 165 169 168 166 165 160 131 317 291 263 255 259 256 248 245 244 245 243 244 244 244 242 238 233
196 209 184 195 191 183 190 210 221 247 244 256 234 239 238 190 187 190 187 179 176 162 155 162 153 99 33 315 296 287 285 277 270 264 260 255 251 249 251 253 251 251 248 246
194 197 185 184 189 213 200 177 184 209 211 230 237 228 225 199 202 198 192 187 180 163 160 164 162 168 262 277 288 297 285 279 278 275 269 266 262 258 257 257 255 255 255 253
213 189 170 175 196 195 190 195 195 198 208 207 233 238 210 191 191 183 179 168 165 164 165 174 196 222 254 275 280 287 295 294 293 286 281 280 277 272 268 263 261 260 258 255
198 180 193 201 207 211 205 206 199 201 212 214 239 255 297 151 162 166 168 165 158 161 177 191 226 255 274 287 296 304 302 296 288 284 282 280 281 279 274 270 269 267 265 260
177 178 177 188 207 217 217 215 215 220 220 219 227 251 203 151 151 150 155 162 169 178 184 212 249 266 277 289 302 304 300 297 298 297 294 291 290 287 282 278 278 277 273 270
171 185 201 204 190 182 202 211 212 214 224 230 231 243 254 242 228 202 186 186 187 195 204 225 251 272 286 299 300 302 307 312 313 312 304 295 290 287 287 287 285 282 280 276
173 197 215 238 229 181 195 207 212 220 224 228 236 240 245 242 235 230 210 203 215 227 233 247 266 286 301 303 300 304 313 320 319 312 307 299 296 294 292 290 288 287 283 278
179 184 189 233 241 227 225 218 217 223 229 237 248 253 249 255 255 250 234 222 225 226 230 254 288 302 304 308 313 320 319 317 318 310 303 301 300 297 292 290 291 290 286 281
176 167 180 219 209 232 238 220 218 223 224 226 237 246 249 254 247 239 232 224 220 221 231 237 259 284 303 316 321 314 311 316 316 307 302 301 299 295 292 291 291 287 286 284
177 176 183 178 174 226 235 208 214 227 233 231 240 248 243 243 246 238 224 211 212 221 242 274 301 318 322 321 318 313 312 312 307 304 302 302 300 295 294 291 285 283 283 280
186 181 185 189 220 248 258 219 206 217 237 228 235 243 243 238 255 254 213 173 185 193 222 261 286 291 298 304 309 311 307 305 302 300 299 300 298 293 292 288 285 284 283 280
196 184 191 198 215 229 234 205 183 194 247 232 225 235 233 214 235 240 185 155 155 169 203 314 316 313 304 305 313 305 298 298 295 296 296 296 293 288 285 284 284 281 276 275
187 193 206 211 228 248 237 179 143 189 234 222 208 222 217 212 216 189 137 122 125 145 272 323 311 298 293 301 303 292 290 288 290 294 294 294 291 285 282 284 281 279 275 273
186 187 198 198 221 240 203 162 185 207 180 162 173 198 197 194 146 112 94 57 350 315 308 308 296 286 287 290 292 289 287 291 297 296 295 294 291 288 284 280 280 276 272 272
202 196 188 199 217 216 175 184 189 153 161 170 160 161 153 165 191 229 269 280 289 294 293 291 283 288 291 291 288 287 292 300 300 298 294 294 293 287 281 277 278 279 271 265
226 205 198 225 236 219 211 198 186 152 155 142 139 142 143 186 239 270 277 281 283 282 281 285 285 285 288 289 286 281 292 298 295 293 293 293 292 289 284 275 269 267 265 262
201 184 206 234 239 245 249 219 193 160 130 116 116 149 178 214 254 262 271 275 277 283 283 282 278 280 284 293 292 291 293 296 293 289 288 289 286 284 285 278 269 266 261 251
202 196 201 222 204 196 215 197 181 175 186 182 185 224 235 224 254 270 273 276 282 285 288 287 282 283 287 292 292 293 292 291 290 289 288 285 284 283 280 282 286 276 264 264